Location: Corralito
(10.2667°N, 66.9500°W)
Time: 19:24:30
(UTC+00:00)

BlueWalker 3 - Pass Details

Date: 23 March 2023
Orbit: 493 x 513 km, 53.2° (Epoch: 09 June)

Event Time Altitude Azimuth Distance (km) Brightness Sun altitude
Rises 22:59:50 0° 193° (SSW) 2,623 5.7 -6.1°
Reaches altitude 10° 23:02:18 10° 180° (S) 1,735 4.7 -6.7°
Maximum altitude 23:05:35 25° 123° (ESE) 1,058 3.1 -7.5°
Drops below altitude 10° 23:08:51 10° 66° (ENE) 1,728 4.1 -8.3°
Enters shadow 23:09:29 - 62° (ENE) 1,948 4.4 -8.4°
